Location: Newark
(23.1300°N, 73.6109°E)
Time: 16:33:28
(UTC+00:00)

NOAA 18 - Pass Details

Date: 12 July 2020
Orbit: 839 x 862 km, 99.0° (Epoch: 05 August)

Event Time Altitude Azimuth Distance (km) Brightness Sun altitude
Exits shadow 16:01:45 69° 114° (ESE) 917 5.1 -25.6°
Maximum altitude 16:02:13 73° 76° (ENE) 896 5.1 -25.7°
Drops below altitude 10° 16:07:43 10° 352° (N) 2,486 8.2 -26.6°
Sets 16:10:05 0° 351° (N) 3,421 9.1 -27.0°
